Location: Unspecified
(0.0000°N, 0.0000°E)
Time: 14:39:33
(UTC+02:00)

ARIANE 5 R/B - Visible Passes

Search period start: 20 August 2014 00:00
Search period end: 30 August 2014 00:00
Orbit: 551 x 35578 km, 5.1° (Epoch: 18 August)

Date Brightness Start Highest point End Pass type
(mag) Time Alt. Az. Time Alt. Az. Time Alt. Az.
20 Aug 9.2 00:00:00 42° E 02:22:27 54° E 04:08:03 10° E visible
21 Aug 9.6 02:56:53 10° W 04:18:58 24° W 07:08:37 10° W visible
21 Aug 6.9 23:25:34 10° W 09:12:01 88° S 09:22:26 10° E visible
22 Aug 7.6 20:20:13 10° W 20:36:53 90° S 06:19:39 10° E visible
23 Aug 5.3 17:19:57 10° WSW 17:25:04 72° S 18:02:56 10° E visible
25 Aug 5.2 10:51:35 10° W 11:20:16 71° S 11:25:00 10° ESE visible
25 Aug 7.4 22:25:52 10° W 08:10:03 90° N 08:24:54 10° E visible
26 Aug 7.0 19:22:36 10° W 19:34:10 88° S 05:20:14 10° E visible
27 Aug 9.6 21:06:28 10° E 00:25:52 28° E 01:53:45 10° E visible
29 Aug 5.8 00:38:43 10° W 10:21:40 78° S 10:27:50 10° ESE visible
29 Aug 8.8 21:27:02 10° W 22:04:55 86° N 00:00:00 78° ENE visible
